Simultaneous Nadir Overpasses (SNOs) Predictions

Prediction of SNOs near US between NOAA-19 and NPP Satellite Orbit:

Table of predicted SNOs near US for the next 10.0 days since TLE Epoch: 5/7/2012
Index Date (NOAA-19) Time (NOAA-19) NOAA-19 Lat,Lon Date (NPP) Time (NPP) NPP Lat,Lon Distance(km) Time Diff (sec)
1 05/15/2012 06:36:05 49.94, -65.31 05/15/2012 06:40:54 50.63, -68.61 246.73 289
2 05/15/2012 08:18:11 49.90, -90.85 05/15/2012 08:22:25 50.56, -94.02 236.94 254
3 05/15/2012 10:00:16 49.92,-116.37 05/15/2012 10:03:56 50.50,-119.42 226.85 220
4 05/15/2012 18:07:37 47.08, -78.43 05/15/2012 18:08:27 46.68, -80.51 164.88 50
5 05/15/2012 19:50:18 49.13,-104.82 05/15/2012 19:50:33 48.76,-106.75 146.79 15
6 05/15/2012 21:28:04 34.23,-125.00 05/15/2012 21:27:45 33.86,-126.91 180.96 19
7 05/16/2012 06:30:20
